CZ-6A DEB, 60822

Orbit data source: Space-Track

CZ-6A DEB, 60822 is space debris in LEO originally from a launch on Tue, 06 Aug 2024 UTC launched from the Taiyaun Space Center, China (TSC). Debris objects in space refer to the collection of defunct objects orbiting the Earth. Examples of debris include non-operational satellites, rocket bodies, and fragments generated from explosions, collisions, or faulty payload assembly.

Loading next visibility...
Identifier
60822, 2024-140GZ
Orbit
LEO
Country
Flag of CNCN / PRC
Related business
Manufacturer
SAST
Mission
Spacecraft
Bus & Motor
Unknown
Mass
Unknown
Launch date (UTC)
2024-08-06 (1 year ago)
Launch vehicle
Unknown
Launch site
Taiyaun Space Center, China (TSC)
Object type
Payload
Rocket body
Debris
Shape & HBR
Unknown shape, 0.2 m
Radar Cross Section
Small (<0.1 m²)

Expand to show TLE details & history
Last TLE update: 1 day ago

TLE from 1 day ago
0 CZ-6A DEB
1 60822U 24140GZ  25312.70195301  .00000835  00000-0  18878-3 0  9999
2 60822  89.0045 297.3055 0115871 312.3039  46.8392 14.51261659 65598
Epoch: 2025-11-08T16:50Z
TLE epoch observation values (Epoch: 2025-11-08T16:50:48.740Z)
Latitude
0.00004°
Longitude
-3.52536°
Altitude
668.857 km
Speed
7.552 km/s
True Right ascension
19h 49m 13s
True Declination
0° 00' 00"
Sunlit
Object was in daylight at epoch
Visualization orbit readout
Latitude
Unknown
Longitude
Unknown
Altitude
Unknown
Speed
Unknown
Apparent Right ascension
Unknown
Apparent Declination
Unknown
Sunlit
N/A
Visualization observer readout
Local Sidereal Time
16:06:31
Azimuth
Unknown
Elevation
Unknown
Doppler factor
Unknown
Orbital elements
Apogee altitude
800.665 km
Perigee altitude
636.208 km
Semi-major axis
7,096.574 km
Eccentricity
0.01159
Inclination
89.0045°
RAAN
297.3055°
Arg. of periapsis
312.3039°
True anomaly
47.81737°
Mean anomaly
46.8392°
Eccentric anomaly
47.32732°
Mean motion
3.63053 °/min
Orbital period
99.16 mins
BSTAR
0.00018878
Loading maneuver chart data...
Computing Atmospheric mass density...

Documentation

Showing up to 5 results
|